This is the latest recevied weather packets stored in our database for station/object PA1CG-7. If no packets are shown the sender has not sent any weather packets the latest 1 day(s).
| Time | Temp. | Humidity | Pressure | Rain* | Wind** | Luminosity | Snow |
|---|---|---|---|---|---|---|---|
| 1778011336 | 11.67° C | 72% | 1010.9 hPa | 0 mm | 2.24 m/s, 315° | - | - |
| 1778010736 | 11.67° C | 72% | 1010.8 hPa | 0 mm | 2.68 m/s, 23° | - | - |
| 1778010136 | 12.22° C | 72% | 1010.7 hPa | 0 mm | 3.58 m/s, 315° | - | - |
| 1778009536 | 12.22° C | 72% | 1010.5 hPa | 0 mm | 3.58 m/s, 315° | - | - |
| 1778008936 | 12.22° C | 73% | 1010.4 hPa | 0 mm | 2.68 m/s, 315° | - | - |
| 1778008336 | 12.22° C | 73% | 1010.3 hPa | 0 mm | 4.02 m/s, 293° | - | - |
| 1778007736 | 12.78° C | 73% | 1010.2 hPa | 0 mm | 2.68 m/s, 315° | - | - |
| 1778007136 | 12.78° C | 73% | 1010.2 hPa | 0 mm | 4.02 m/s, 293° | - | - |
| 1778006535 | 12.78° C | 73% | 1010.2 hPa | 0 mm | 4.02 m/s, 315° | - | - |
| 1778005936 | 12.78° C | 73% | 1010.1 hPa | 0 mm | 3.58 m/s, 315° | - | - |
| 1778005335 | 12.78° C | 72% | 1010 hPa | 0 mm | 4.02 m/s, 315° | - | - |
| 1778004736 | 13.33° C | 72% | 1010 hPa | 0 mm | 4.02 m/s, 315° | - | - |
| 1778004136 | 13.33° C | 71% | 1010.1 hPa | 0 mm | 4.02 m/s, 338° | - | - |
| 1778003535 | 13.33° C | 71% | 1010.1 hPa | 0 mm | 3.13 m/s, 315° | - | - |
| 1778002935 | 13.33° C | 71% | 1010.1 hPa | 0 mm | 3.58 m/s, 315° | - | - |
| 1778002335 | 13.89° C | 70% | 1010.1 hPa | 0 mm | 4.02 m/s, 293° | - | - |
| 1778001736 | 13.89° C | 70% | 1010.1 hPa | 0 mm | 4.92 m/s, 338° | - | - |
| 1778001135 | 13.89° C | 70% | 1010.2 hPa | 0 mm | 4.92 m/s, 315° | - | - |
| 1778000536 | 13.89° C | 70% | 1010.2 hPa | 0 mm | 4.02 m/s, 293° | - | - |
| 1777999935 | 13.89° C | 70% | 1010.2 hPa | 0 mm | 3.13 m/s, 315° | - | - |
| 1777999335 | 13.89° C | 70% | 1010.3 hPa | 0 mm | 4.47 m/s, 315° | - | - |
| 1777998735 | 13.89° C | 68% | 1010.3 hPa | 0 mm | 5.81 m/s, 315° | - | - |
| 1777998136 | 14.44° C | 68% | 1010.2 hPa | 0 mm | 3.58 m/s, 315° | - | - |
| 1777997536 | 14.44° C | 68% | 1010.2 hPa | 0 mm | 3.13 m/s, 315° | - | - |
| 1777996935 | 14.44° C | 68% | 1010.2 hPa | 0 mm | 4.47 m/s, 315° | - | - |
* Rain latest hour (hover to see other rain measurements)
** Current wind speed in m/s (hover to see current wind gust speed)